Regional Weather Roundup
Issued by NWS

Home | Current Version | Previous Version | Graphics & Text | Print | Product List | Glossary Off
Versions: 1 2 3 4 5 6 7 8 9 10 11 12 13 14 15 16 17 18 19 20 21 22 23 24 25 26 27 28 29 30 31 32 33 34 35 36 37 38 39 40 41 42 43 44 45 46 47 48 49 50

112
ASUS43 KDMX 271301
RWRIA

WEATHER ROUNDUP FOR IOWA
NATIONAL WEATHER SERVICE DES MOINES IA
800 AM CDT THU APR 27 2017

NOTE: "FAIR" INDICATES FEW OR NO CLOUDS BELOW 12,000 FEET WITH NO
SIGNIFICANT WEATHER AND/OR OBSTRUCTIONS TO VISIBILITY.

* - THESE STATIONS ARE NOT NWS STATIONS...THUS NOT UNDER NWS
QUALITY CONTROL.  THEY ALSO DO NOT REPORT WEATHER SUCH
AS PRECIPITATION OR FOG.

IAZ001>003-012>014-020>022-031>034-043>046-271400-
   NORTHWEST IOWA

CITY           SKY/WX    TMP DP  RH WIND       PRES   REMARKS
CARROLL *      CLOUDY    34  30  86 NW17G24   29.64R WCI  23
CHEROKEE *     CLOUDY    32  29  91 N9        29.66R WCI  24
DENISON *      CLOUDY    34  28  80 NW10      29.68R WCI  26
LE MARS *      CLOUDY    32  28  86 NW12      29.68S WCI  23
ORANGE CITY *  CLOUDY    30  28  93 N12G17    29.65R WCI  21
SHELDON *      CLOUDY    30  27  86 NW15G23   29.63S WCI  19
SIOUX CITY     CLOUDY    32  27  81 NW14      29.69R WCI  22
SPENCER        CLOUDY    30  26  85 NW14G22   29.62R WCI  19
STORM LAKE *   CLOUDY    30  27  86 NW18      29.63S WCI  18
$$

IAZ055>058-069>071-079>083-090>094-271400-
   SOUTHWEST IOWA

CITY           SKY/WX    TMP DP  RH WIND       PRES   REMARKS
ATLANTIC *     CLOUDY    36  28  75 NW13      29.67R WCI  27
AUDUBON *      CLOUDY    34  28  80 NW9G16    29.66R WCI  26
CLARINDA *     MOSUNNY   41  30  65 NW10      29.71R
COUNCIL BLFS *   N/A     36  30  80 NW13      29.69R WCI  27
CRESTON *      CLOUDY    37  30  75 W18G24    29.67R WCI  27
HARLAN  *      CLOUDY    36  30  80 NW13      29.70R WCI  27
LAMONI           N/A     38  30  73 W14       29.66R WCI  30
RED OAK *      CLOUDY    37  28  70 W12       29.69R WCI  30
SHENANDOAH *   CLOUDY    39  30  70 NW8       29.71R WCI  34
$$

IAZ047>049-059>061-072>074-084-271400-
   CENTRAL IOWA

CITY           SKY/WX    TMP DP  RH WIND       PRES   REMARKS
AMES           CLOUDY    34  31  88 NW13      29.63R WCI  25
ANKENY *       CLOUDY    36  28  75 NW15      29.65R WCI  26
BOONE *        CLOUDY    34  30  86 NW12G21   29.61R WCI  25
CHARITON *     CLOUDY    37  32  81 NW16      29.64R WCI  28
DES MOINES     DRIZZLE   37  30  75 NW14      29.64R WCI  28
GRINNELL*      CLOUDY    35  31  85 W16       29.62R WCI  25
KNOXVILLE *    CLOUDY    36  32  87 W15       29.62R WCI  26
MARSHALLTOWN   CLOUDY    34  31  88 NW20      29.59R WCI  23
NEWTON *       CLOUDY    36  30  80 NW17G23   29.62R WCI  25
PELLA *        CLOUDY    36  32  87 NW12G17   29.64R WCI  28
PERRY *        CLOUDY    35  31  85 NW13      29.64R WCI  27
$$

IAZ004>006-015-016-023>025-035-036-271400-
   NORTH CENTRAL IOWA

CITY           SKY/WX    TMP DP  RH WIND       PRES   REMARKS
ALGONA *       MIX PCPN  32  28  86 NW22      29.59S WCI  19
CLARION *      CLOUDY    32  32 100 NW15G25   29.60R WCI  22
ESTHERVILLE    CLOUDY    30  27  88 NW18      29.60R WCI  18
FORT DODGE *   CLOUDY    32  27  80 NW13      29.62R WCI  22
MASON CITY     CLOUDY    33  30  88 NW15      29.57R WCI  23
FOREST CITY *  CLOUDY    32  30  93 NW14G21   29.57R FOG     WCI  22
WEBSTER CITY * CLOUDY    32  28  86 NW20      29.60R WCI  20
IOWA FALLS *   CLOUDY    33  31  92 NW17      29.60R FOG     WCI  22
$$

IAZ007>011-017>019-026>030-037>042-050>054-066-271400-
   NORTHEAST IOWA

CITY           SKY/WX    TMP DP  RH WIND       PRES   REMARKS
CEDAR RAPIDS   CLOUDY    36  35  96 W17       29.57R WCI  26
CHARLES CITY * CLOUDY    34  34 100 W17       29.54R FOG     WCI  23
CLINTON *      LGT RAIN  37  36  96 W17       29.54R WCI  27
DECORAH *      CLOUDY    36  32  87 NW9       29.49R WCI  29
DUBUQUE        CLOUDY    35  34  96 W12       29.49R WCI  27
MONTICELLO *   CLOUDY    37  36  93 W18       29.53R WCI  27
OELWEIN *      CLOUDY    36  34  93 NW16      29.54R WCI  26
WATERLOO       CLOUDY    34  32  92 W12G17    29.56R FOG     WCI  25
$$

IAZ064-065-067-068-078-271400-
   EAST CENTRAL IOWA

CITY           SKY/WX    TMP DP  RH WIND       PRES   REMARKS
DAVENPORT      CLOUDY    39  35  86 W22       29.56R WCI  29
IOWA CITY      CLOUDY    39  32  76 W15       29.60R WCI  31
MT. PLEASANT * CLOUDY    39  36  89 W12G17    29.61R WCI  31
MUSCATINE *    CLOUDY    39  36  87 W16       29.59R WCI  30
QUAD CITIES    CLOUDY    40  36  86 W21G28    29.56R WCI  30
$$

IAZ062-063-075>077-085>089-095>099-271400-
   SOUTHEAST IOWA

CITY           SKY/WX    TMP DP  RH WIND       PRES   REMARKS
BURLINGTON     CLOUDY    40  38  93 W8        29.60R WCI  34
FAIRFIELD *    CLOUDY    37  32  81 NW16G25   29.61R WCI  28
FORT MADISON * CLOUDY    39  39 100 W12       29.62R WCI  32
KEOKUK *       CLOUDY    41  39  93 W12G18    29.62R
OSKALOOSA *    CLOUDY    36  33  88 W14       29.63R WCI  27
CENTERVILLE *  CLOUDY    37  34  87 W12       29.66R WCI  30
OTTUMWA        CLOUDY    37  36  96 W12       29.62R FOG     WCI  29
WASHINGTON *   CLOUDY    37  36  93 W14G21    29.61R WCI  29
$$

ABBREVIATIONS USED IN REMARKS
   TC - TEMPERATURES IN CELSIUS
  WCI - WIND CHILL INDEX
   HX - HEAT INDEX
  VSB - VISIBILITY
$$





USA.gov is the U.S. government's official web portal to all federal, state and local government web resources and services.